Content
SEND FEEDBACK

Daily
Averages
Monthly
Summary
United States of America

BEAVER, OKLAHOMA


Home > North America > United States > Oklahoma
Elevation: 733 meters     Latitude: 36 49N     Longitude: 100 32W

WEATHER
 
SELECT A DAY
Number of Records: 468,891;   Date Range: 1/1/95 - 10/20/14
 
SHARE

PRINT THIS DATA

[ ← Previous Day ]
WEATHER ALMANAC - 31 JANUARY, 2013
[ Next Day → ]
[ °F ]   °C
Weather ElementAverageHighLow
Temperature0.2 °C8 °C (2:15 pm)-7 °C (11:15 pm)
Dewpoint-7.5 °C-3 °C (12:55 pm)-11 °C (2:15 am)
Humidity58 %74 % (6:15 am)43 % (2:55 pm)
Barometer1020 hPa1026.1 hPa (8:35 pm)1014.6 hPa (2:15 am)
Wind Speed20.4 km/h38.9 km/h (12:15 pm)
Wind Gust44.4 km/h (10:15 am)
Weather ElementAverage
Visibility16.1 km
Wind DirectionSSE (156.9 °)

Weather ElementTotal
Precipitation---
Heating Degree Days17.8 (Base 18.3)
Averaged from 65 records on 31 January, 2013
WEATHER CONDITIONS BREAKOUT
WIND DIRECTION BREAKOUT
WEATHER BY HOUR - 31 JANUARY, 2013
[ °F ]   °C
Local TimeTemperatureDewpointHumidityBarometerVisibilityWind DirectionWind SpeedGust SpeedPrecipitationEventsConditions
12:35 AM-2 °C-10 °C55 %1015.6 hPa16.1 kmWSW (250°)14.8 km/hMostly Cloudy
12:55 AM-1 °C-9 °C55 %1015.6 hPa16.1 kmWest (260°)16.7 km/hScattered Clouds
1:15 AM-2 °C-10 °C55 %1015.6 hPa16.1 kmWSW (250°)14.8 km/hClear
1:35 AM-3 °C-10 °C59 %1015.2 hPa16.1 kmWSW (250°)14.8 km/hScattered Clouds
1:55 AM-3 °C-9 °C64 %1015.2 hPa16.1 kmWSW (250°)18.5 km/hPartly Cloudy
2:15 AM-4 °C-11 °C59 %1014.6 hPa16.1 kmWSW (240°)14.8 km/hClear
2:35 AM-4 °C-11 °C59 %1014.6 hPa16.1 kmWSW (250°)13 km/hClear
2:55 AM-5 °C-11 °C63 %1014.6 hPa16.1 kmWest (260°)13 km/hClear
3:15 AM-4 °C-11 °C59 %1014.9 hPa16.1 kmSW (220°)14.8 km/hClear
3:35 AM-4 °C-10 °C64 %1014.9 hPa16.1 kmSW (230°)13 km/hClear
3:55 AM-5 °C-11 °C63 %1014.6 hPa16.1 kmWSW (250°)9.3 km/hClear
4:15 AM-6 °C-11 °C68 %1014.6 hPa16.1 kmWSW (250°)11.1 km/hClear
4:35 AM-6 °C-11 °C68 %1014.6 hPa16.1 kmWest (260°)11.1 km/hClear
4:55 AM-6 °C-11 °C68 %1014.6 hPa16.1 kmWSW (250°)13 km/hClear
5:15 AM-6 °C-11 °C68 %1014.9 hPa16.1 kmWest (270°)7.4 km/hClear
5:35 AM-6 °C-11 °C68 %1014.6 hPa16.1 kmWSW (240°)11.1 km/hClear
6:15 AM-4 °C-8 °C74 %1014.6 hPa16.1 kmWest (280°)16.7 km/hClear
6:35 AM-3 °C-9 °C64 %1014.9 hPa16.1 kmWest (270°)14.8 km/hClear
6:55 AM-4 °C-9 °C69 %1015.2 hPa16.1 kmWest (270°)16.7 km/hClear
7:15 AM-3 °C-9 °C64 %1015.2 hPa16.1 kmWest (270°)18.5 km/hClear
7:35 AM-3 °C-8 °C69 %1015.6 hPa16.1 kmWest (270°)18.5 km/hClear
7:55 AM-3 °C-9 °C64 %1016.3 hPa16.1 kmWNW (290°)20.4 km/hClear
8:15 AM-3 °C-9 °C64 %1016.3 hPa16.1 kmWNW (290°)20.4 km/hClear
8:35 AM-2 °C-7 °C69 %1016.6 hPa16.1 kmWNW (300°)18.5 km/hClear
8:55 AM1 °C-6 °C60 %1017.3 hPa16.1 kmNW (310°)27.8 km/hClear
9:15 AM2 °C-6 °C56 %1018.3 hPa16.1 kmNW (310°)29.6 km/hMostly Cloudy
9:35 AM3 °C-5 °C56 %1018.6 hPa11.3 kmNW (320°)27.8 km/h37 km/hPartly Cloudy
9:55 AM3 °C-6 °C52 %1019 hPa16.1 kmNNW (340°)33.3 km/hClear
10:15 AM3 °C-5 °C56 %1019.6 hPa16.1 kmNorth (350°)35.2 km/h44.4 km/hClear
10:35 AM4 °C-6 °C49 %1020 hPa16.1 kmNorth (10°)33.3 km/h42.6 km/hClear
10:55 AM5 °C-4 °C53 %1020.3 hPa16.1 kmNNE (30°)33.3 km/h42.6 km/hClear
11:15 AM6 °C-4 °C49 %1020.3 hPa16.1 kmNE (40°)29.6 km/hClear
11:35 AM6 °C-4 °C49 %1020.7 hPa16.1 kmNNE (30°)31.5 km/hClear
11:55 AM7 °C-4 °C46 %1020.7 hPa16.1 kmNE (40°)29.6 km/hClear
12:15 PM7 °C-4 °C46 %1021.7 hPa16.1 kmNNE (20°)38.9 km/h44.4 km/hClear
12:35 PM7 °C-4 °C46 %1021.7 hPa16.1 kmNE (40°)31.5 km/h44.4 km/hClear
12:55 PM7 °C-3 °C49 %1021.3 hPa16.1 kmNNE (30°)33.3 km/h42.6 km/hClear
1:15 PM7 °C-4 °C46 %1021.3 hPa16.1 kmNNE (30°)22.2 km/hClear
1:35 PM7 °C-4 °C46 %1021.7 hPa16.1 kmNNE (20°)20.4 km/h29.6 km/hClear
2:15 PM8 °C-3 °C46 %1021.7 hPa16.1 kmNNE (30°)24.1 km/h35.2 km/hClear
2:35 PM8 °C-3 °C46 %1021.3 hPa16.1 kmNE (40°)22.2 km/h33.3 km/hClear
2:55 PM8 °C-4 °C43 %1021.7 hPa16.1 kmNNE (30°)24.1 km/hClear
3:15 PM7 °C-4 °C46 %1022 hPa16.1 kmNE (40°)20.4 km/hClear
3:35 PM7 °C-4 °C46 %1022.4 hPa16.1 kmNNE (30°)18.5 km/hClear
3:55 PM7 °C-4 °C46 %1022.4 hPa16.1 kmNE (40°)18.5 km/hClear
4:15 PM7 °C-5 °C43 %1022.4 hPa16.1 kmENE (60°)18.5 km/hClear
4:35 PM7 °C-5 °C43 %1022.7 hPa16.1 kmENE (60°)13 km/hClear
4:55 PM6 °C-5 °C46 %1023 hPa16.1 kmEast (90°)13 km/hClear
5:15 PM6 °C-5 °C46 %1023.4 hPa16.1 kmEast (80°)9.3 km/hClear
5:35 PM6 °C-5 °C46 %1023.7 hPa16.1 kmESE (110°)11.1 km/hClear
6:15 PM3 °C-6 °C52 %1024 hPa16.1 kmEast (90°)20.4 km/hClear
6:35 PM2 °C-8 °C48 %1024 hPa16.1 kmEast (100°)22.2 km/h31.5 km/hClear
7:15 PM-1 °C-8 °C60 %1025.1 hPa16.1 kmEast (100°)24.1 km/h31.5 km/hClear
7:35 PM-2 °C-9 °C59 %1025.1 hPa16.1 kmEast (90°)24.1 km/h33.3 km/hClear
7:55 PM-2 °C-9 °C59 %1025.4 hPa16.1 kmEast (90°)24.1 km/hClear
8:15 PM-3 °C-9 °C64 %1025.7 hPa16.1 kmEast (90°)24.1 km/hClear
8:35 PM-3 °C-9 °C64 %1026.1 hPa16.1 kmEast (100°)22.2 km/hClear
8:55 PM-4 °C-9 °C69 %1025.7 hPa16.1 kmEast (90°)22.2 km/hClear
9:15 PM-4 °C-9 °C69 %1026.1 hPa16.1 kmEast (90°)18.5 km/hClear
9:35 PM-5 °C-9 °C74 %1025.7 hPa16.1 kmEast (100°)20.4 km/hClear
9:55 PM-5 °C-10 °C68 %1025.7 hPa16.1 kmEast (100°)20.4 km/hClear
10:15 PM-6 °C-10 °C74 %1025.7 hPa16.1 kmEast (100°)20.4 km/hClear
10:35 PM-6 °C-10 °C74 %1025.7 hPa16.1 kmEast (100°)16.7 km/hClear
11:15 PM-7 °C-11 °C74 %1025.4 hPa16.1 kmEast (100°)18.5 km/hClear
11:35 PM-7 °C-11 °C74 %1025.4 hPa16.1 kmESE (110°)18.5 km/hClear
Hourly data recorded from KLBL, located 0 kilometers away from Beaver, Oklahoma







STORIES FROM OUR PARTNERS